When you browse on this site, cookies collect data to enhance your experience and personalize the content and advertising you see.
Visit our Privacy Policy to learn more. By continuing to use the site, you agree to this use of cookies and data.
  • In Spain
  • List of Countries
  • For 7 days
  • Water Temperature
  • Weather Map
  • Weather Widgets
  • user-avatar
    Login

    Hourly Weather Pitrufquen

    Today, 5 April, Sunday

    Time Temperature Precipitation Wind Pressure Humidity
    00:00 +7°C° 0 mm 0 mps 754 mmHg 97%
    01:00 +6°C° 0 mm 0 mps 754 mmHg 97%
    02:00 +6°C° 0 mm 0 mps 754 mmHg 97%
    03:00 +6°C° 0 mm 0 mps 754 mmHg 97%
    04:00 +5°C° 0 mm 0 mps 755 mmHg 97%
    05:00 +6°C° 0 mm 0 mps 755 mmHg 96%
    06:00 +7°C° 0 mm 1 mps 755 mmHg 95%
    07:00 +8°C° 0 mm 1 mps 756 mmHg 94%
    08:00 +10°C° 0 mm 1 mps 756 mmHg 84%
    09:00 +12°C° 0 mm 1 mps 756 mmHg 75%
    10:00 +15°C° 0 mm 1 mps 756 mmHg 65%
    11:00 +16°C° 0.1 mm 2 mps 756 mmHg 61%
    12:00 +17°C° 0.1 mm 2 mps 756 mmHg 56%
    13:00 +19°C° 0.1 mm 3 mps 756 mmHg 51%
    14:00 +18°C° 0 mm 3 mps 756 mmHg 53%
    15:00 +18°C° 0 mm 3 mps 757 mmHg 55%
    16:00 +18°C° 0 mm 3 mps 757 mmHg 57%
    17:00 +15°C° 0 mm 2 mps 758 mmHg 67%
    18:00 +13°C° 0 mm 2 mps 758 mmHg 77%
    19:00 +11°C° 0 mm 1 mps 759 mmHg 87%
    20:00 +10°C° 0 mm 1 mps 760 mmHg 89%
    21:00 +9°C° 0 mm 1 mps 760 mmHg 91%
    22:00 +8°C° 0 mm 1 mps 761 mmHg 93%
    23:00 +7°C° 0 mm 1 mps 761 mmHg 92%

    Tomorrow, 6 April, Monday

    Time Temperature Precipitation Wind Pressure Humidity
    00:00 +7°C° 0 mm 1 mps 761 mmHg 91%
    01:00 +5°C° 0 mm 0 mps 761 mmHg 90%
    02:00 +5°C° 0 mm 1 mps 760 mmHg 92%
    03:00 +5°C° 0 mm 1 mps 760 mmHg 93%
    04:00 +4°C° 0 mm 1 mps 760 mmHg 95%
    05:00 +5°C° 0 mm 1 mps 760 mmHg 93%
    06:00 +5°C° 0 mm 1 mps 760 mmHg 92%
    07:00 +5°C° 0 mm 1 mps 760 mmHg 91%
    08:00 +8°C° 0 mm 1 mps 760 mmHg 75%
    09:00 +10°C° 0 mm 2 mps 759 mmHg 60%
    10:00 +14°C° 0 mm 2 mps 759 mmHg 45%
    11:00 +16°C° 0 mm 2 mps 758 mmHg 41%
    12:00 +17°C° 0 mm 2 mps 758 mmHg 37%
    13:00 +19°C° 0 mm 3 mps 757 mmHg 33%
    14:00 +18°C° 0 mm 3 mps 757 mmHg 34%
    15:00 +18°C° 0 mm 3 mps 757 mmHg 36%
    16:00 +18°C° 0 mm 3 mps 756 mmHg 38%
    17:00 +15°C° 0 mm 2 mps 756 mmHg 46%
    18:00 +13°C° 0 mm 2 mps 757 mmHg 55%
    19:00 +10°C° 0 mm 1 mps 757 mmHg 63%
    20:00 +9°C° 0 mm 1 mps 757 mmHg 66%
    21:00 +8°C° 0 mm 1 mps 757 mmHg 70%
    22:00 +7°C° 0 mm 1 mps 757 mmHg 74%
    23:00 +6°C° 0 mm 1 mps 757 mmHg 77%

    Day after tomorrow, 7 April, Tuesday

    Time Temperature Precipitation Wind Pressure Humidity
    00:00 +6°C° 0 mm 1 mps 756 mmHg 81%
    01:00 +6°C° 0 mm 1 mps 756 mmHg 84%
    02:00 +5°C° 0 mm 1 mps 756 mmHg 88%
    03:00 +5°C° 0 mm 1 mps 756 mmHg 91%
    04:00 +4°C° 0 mm 1 mps 756 mmHg 95%
    05:00 +5°C° 0 mm 1 mps 755 mmHg 94%
    06:00 +5°C° 0 mm 1 mps 755 mmHg 93%
    07:00 +5°C° 0 mm 1 mps 755 mmHg 91%
    08:00 +9°C° 0 mm 1 mps 755 mmHg 76%
    09:00 +13°C° 0 mm 1 mps 755 mmHg 61%
    10:00 +16°C° 0 mm 1 mps 754 mmHg 46%
    11:00 +19°C° 0 mm 1 mps 754 mmHg 41%
    12:00 +21°C° 0 mm 2 mps 753 mmHg 36%
    13:00 +24°C° 0 mm 2 mps 753 mmHg 30%
    14:00 +24°C° 0 mm 2 mps 752 mmHg 33%
    15:00 +24°C° 0 mm 2 mps 752 mmHg 36%
    16:00 +23°C° 0 mm 2 mps 752 mmHg 39%
    17:00 +20°C° 0 mm 1 mps 752 mmHg 52%
    18:00 +16°C° 0 mm 1 mps 752 mmHg 65%
    19:00 +12°C° 0 mm 1 mps 752 mmHg 77%
    20:00 +10°C° 0 mm 0 mps 753 mmHg 81%
    21:00 +10°C° 0 mm 0 mps 753 mmHg 84%
    22:00 +9°C° 0 mm 0 mps 753 mmHg 87%
    23:00 +9°C° 0 mm 0 mps 753 mmHg 86%

    8 April, Wednesday

    Time Temperature Precipitation Wind Pressure Humidity
    00:00 +9°C° 0 mm 1 mps 752 mmHg 85%
    01:00 +9°C° 0 mm 1 mps 752 mmHg 84%
    02:00 +9°C° 0 mm 1 mps 752 mmHg 80%
    03:00 +9°C° 0 mm 1 mps 752 mmHg 77%
    04:00 +9°C° 0 mm 1 mps 752 mmHg 73%
    05:00 +9°C° 0 mm 1 mps 752 mmHg 70%
    06:00 +9°C° 0 mm 1 mps 752 mmHg 66%
    07:00 +10°C° 0 mm 1 mps 752 mmHg 63%
    08:00 +13°C° 0 mm 0 mps 752 mmHg 52%
    09:00 +18°C° 0 mm 0 mps 752 mmHg 41%
    10:00 +22°C° 0 mm 0 mps 752 mmHg 30%
    11:00 +24°C° 0 mm 0 mps 752 mmHg 27%
    12:00 +28°C° 0 mm 1 mps 751 mmHg 25%
    13:00 +30°C° 0 mm 1 mps 751 mmHg 22%
    14:00 +28°C° 0 mm 1 mps 751 mmHg 26%
    15:00 +27°C° 0 mm 2 mps 751 mmHg 29%
    16:00 +26°C° 0 mm 2 mps 751 mmHg 33%
    17:00 +21°C° 0 mm 2 mps 752 mmHg 45%
    18:00 +18°C° 0 mm 1 mps 752 mmHg 56%
    19:00 +13°C° 0 mm 1 mps 752 mmHg 68%
    20:00 +11°C° 0 mm 0 mps 752 mmHg 73%
    21:00 +10°C° 0 mm 0 mps 753 mmHg 79%
    22:00 +9°C° 0 mm 0 mps 753 mmHg 84%
    23:00 +9°C° 0 mm 0 mps 753 mmHg 86%

    9 April, Thursday

    Time Temperature Precipitation Wind Pressure Humidity
    00:00 +8°C° 0 mm 0 mps 753 mmHg 88%
    01:00 +8°C° 0 mm 0 mps 753 mmHg 90%
    02:00 +8°C° 0 mm 0 mps 753 mmHg 90%
    03:00 +7°C° 0 mm 0 mps 753 mmHg 90%
    04:00 +7°C° 0 mm 0 mps 752 mmHg 91%
    05:00 +7°C° 0 mm 0 mps 752 mmHg 89%
    06:00 +8°C° 0 mm 0 mps 753 mmHg 88%
    07:00 +8°C° 0 mm 0 mps 753 mmHg 86%
    08:00 +12°C° 0 mm 0 mps 753 mmHg 73%
    09:00 +15°C° 0 mm 0 mps 752 mmHg 60%
    10:00 +21°C° 0 mm 1 mps 752 mmHg 47%
    11:00 +22°C° 0 mm 1 mps 752 mmHg 44%
    12:00 +24°C° 0 mm 1 mps 752 mmHg 41%
    13:00 +25°C° 0 mm 2 mps 752 mmHg 38%
    14:00 +24°C° 0 mm 2 mps 752 mmHg 45%
    15:00 +21°C° 0 mm 2 mps 752 mmHg 52%
    16:00 +20°C° 0 mm 2 mps 752 mmHg 59%
    17:00 +17°C° 0 mm 2 mps 753 mmHg 71%
    18:00 +14°C° 0 mm 1 mps 753 mmHg 84%
    19:00 +12°C° 0 mm 1 mps 754 mmHg 96%
    20:00 +11°C° 0 mm 1 mps 754 mmHg 96%
    21:00 +10°C° 0 mm 0 mps 754 mmHg 96%
    22:00 +9°C° 0 mm 0 mps 754 mmHg 97%
    23:00 +9°C° 0 mm 0 mps 754 mmHg 97%

    10 April, Friday

    Time Temperature Precipitation Wind Pressure Humidity
    00:00 +9°C° 0 mm 0 mps 754 mmHg 97%
    01:00 +9°C° 0 mm 0 mps 754 mmHg 97%
    02:00 +9°C° 0 mm 0 mps 753 mmHg 97%
    03:00 +10°C° 0 mm 0 mps 753 mmHg 96%
    04:00 +10°C° 0 mm 0 mps 753 mmHg 96%
    05:00 +10°C° 0 mm 0 mps 753 mmHg 95%
    06:00 +10°C° 0 mm 0 mps 753 mmHg 95%
    07:00 +10°C° 0 mm 0 mps 753 mmHg 94%
    08:00 +12°C° 0 mm 0 mps 753 mmHg 83%
    09:00 +15°C° 0 mm 0 mps 753 mmHg 72%
    10:00 +17°C° 0 mm 0 mps 753 mmHg 61%
    11:00 +21°C° 0 mm 1 mps 753 mmHg 57%
    12:00 +22°C° 0 mm 1 mps 753 mmHg 54%
    13:00 +24°C° 0 mm 1 mps 753 mmHg 50%
    14:00 +23°C° 0 mm 2 mps 753 mmHg 55%
    15:00 +21°C° 0 mm 2 mps 752 mmHg 61%
    16:00 +20°C° 0 mm 2 mps 752 mmHg 66%
    17:00 +18°C° 0 mm 2 mps 752 mmHg 76%
    18:00 +16°C° 0 mm 1 mps 753 mmHg 86%
    19:00 +14°C° 0 mm 1 mps 753 mmHg 96%
    20:00 +13°C° 0 mm 1 mps 753 mmHg 96%
    21:00 +13°C° 0 mm 1 mps 754 mmHg 95%
    22:00 +13°C° 0 mm 1 mps 754 mmHg 95%
    23:00 +12°C° 0 mm 1 mps 754 mmHg 96%
    Show more